RH
11 13 15 16 16 16 16 15 15 15 16 17 17 18 17 16 16 14 16 20 22 24 24 23 23 19 19 21 21 22 22 22 21 21 21 21 22 23 23 24 24 25 25 25 26 25 26 26 27 28 29 30 31 33 35 35 35 35 36 39 43 46 47 49 54 58 60 59 56 49 45 47 51 53 53 55 58 61 63 67 70 72 79 80 73 70
12 15 17 17 15 15 14 13 13 14 15 16 17 18 18 19 19 17 21 25 25 26 25 22 21 19 20 23 23 24 24 24 24 24 24 24 25 25 25 25 25 25 26 27 27 27 27 27 27 28 29 31 31 33 35 36 36 37 37 39 41 44 47 50 52 56 61 61 58 56 51 47 50 54 54 55 57 60 62 65 67 68 70 71 68 68
14 17 19 17 16 16 15 14 15 16 18 20 21 23 24 23 23 22 26 26 24 25 23 20 20 18 21 23 23 25 26 26 27 26 27 27 28 28 28 28 27 27 27 28 28 28 29 28 27 27 28 29 31 33 34 36 37 38 38 39 40 42 45 49 52 57 64 64 59 59 58 54 51 54 56 57 58 59 62 65 68 69 70 69 70 72
15 16 16 16 16 16 15 16 18 19 20 23 25 26 25 25 26 26 26 23 21 22 21 21 22 23 26 28 27 28 28 29 30 30 29 30 30 30 29 30 30 29 29 29 30 29 28 28 27 27 27 27 28 29 31 32 35 37 37 38 40 42 44 48 53 57 63 65 62 60 61 60 59 57 57 58 58 57 61 66 67 69 74 74 74 79
16 15 14 17 17 16 16 17 19 21 22 23 25 26 27 26 26 26 23 22 21 21 23 25 27 28 29 29 28 28 27 29 30 30 31 31 31 31 31 31 32 32 32 32 32 31 30 29 27 27 26 26 26 27 27 28 30 33 35 36 38 40 42 45 51 58 62 64 65 63 61 62 64 63 59 59 59 59 62 65 67 69 74 73 71 77
17 15 15 16 16 15 18 20 22 24 23 21 24 28 27 23 21 20 20 21 21 18 18 22 26 25 23 23 24 23 23 24 25 25 26 27 28 29 30 32 33 35 36 35 35 33 32 30 29 28 27 27 27 27 27 27 28 29 31 33 35 37 39 40 45 54 61 67 68 67 66 65 65 65 63 63 64 65 65 66 70 74 75 73 72 75
17 14 15 16 17 18 20 22 23 22 21 19 20 21 19 15 15 14 14 18 19 14 12 14 19 20 18 18 20 21 22 23 23 23 23 23 24 25 26 29 30 32 33 35 35 34 33 32 31 32 31 30 29 29 28 28 29 29 30 31 32 33 35 37 40 46 55 66 71 70 70 69 68 66 65 65 66 68 67 67 72 74 74 75 76 76
18 17 18 19 19 18 18 18 17 17 17 15 15 16 15 13 14 13 13 16 16 14 12 12 16 19 18 19 22 23 25 26 27 27 26 25 25 26 27 28 28 30 31 32 32 32 32 33 33 33 33 34 34 32 31 31 32 32 32 32 31 32 33 34 36 39 45 55 65 70 71 71 71 70 68 68 69 70 70 69 70 72 71 71 75 78
21 21 19 18 17 15 14 14 13 16 15 12 15 17 16 16 16 15 16 17 17 20 20 13 15 23 22 24 29 30 31 34 34 33 31 30 29 29 30 30 30 31 32 33 33 33 33 33 33 33 33 34 35 35 35 34 34 34 35 35 35 35 35 34 35 36 38 43 52 62 68 70 71 72 72 72 71 71 71 71 70 71 72 71 74 77
21 18 15 15 16 14 14 14 13 15 14 13 16 17 16 17 18 19 20 20 23 29 28 16 15 24 27 31 38 39 40 42 40 40 38 36 34 34 35 35 35 35 35 35 36 38 38 37 37 37 36 35 35 37 38 38 37 36 36 37 39 40 40 39 38 37 38 39 42 49 58 64 68 70 71 72 73 73 72 72 72 72 73 74 76 78
18 15 13 16 17 16 15 13 12 14 14 14 16 14 15 15 16 18 19 23 33 37 28 19 20 25 30 39 46 47 47 47 45 46 44 41 40 40 40 40 39 39 40 40 40 42 43 42 42 42 42 41 39 39 39 41 42 42 42 41 42 43 44 44 43 42 41 40 41 43 47 54 61 65 68 70 72 74 73 73 73 72 72 73 76 78
14 16 17 17 17 15 16 14 12 16 16 16 17 15 16 15 15 17 17 25 40 40 26 20 23 24 31 45 53 54 55 54 54 54 51 48 45 44 45 45 43 43 43 44 45 46 46 47 47 47 46 45 43 41 40 39 40 41 44 45 46 46 46 47 47 46 46 45 45 45 45 47 51 55 60 64 68 72 74 76 75 75 74 74 75 77
10 18 20 19 17 14 15 13 12 16 16 16 15 15 21 24 24 24 21 24 32 30 21 20 22 22 31 45 49 50 55 55 56 57 55 53 49 48 49 49 48 47 46 47 48 49 50 49 49 49 48 47 46 46 44 41 39 38 39 42 45 48 49 49 49 48 48 48 48 49 49 49 50 51 54 57 61 67 70 74 76 77 78 76 75 76
13 18 18 19 17 13 14 14 13 13 11 12 14 17 25 30 32 33 29 27 28 23 15 15 19 23 35 47 46 45 51 52 54 56 56 55 53 52 54 53 52 52 51 49 48 49 50 50 51 51 50 50 49 49 49 47 45 42 39 38 40 41 44 48 50 50 49 48 47 48 49 50 52 53 54 55 58 62 66 69 72 74 77 77 75 73
17 19 15 14 14 11 13 14 14 13 13 15 16 18 24 26 33 36 33 31 30 24 17 15 20 26 37 51 52 50 53 54 55 59 60 61 60 59 60 58 56 55 54 52 51 50 50 50 50 50 51 52 51 51 52 51 50 49 46 43 40 38 38 41 45 48 50 50 49 47 47 48 50 51 52 54 55 59 62 65 68 71 74 76 77 76
17 16 12 11 10 10 13 13 12 15 18 18 17 19 23 24 28 30 29 28 26 27 24 21 31 42 51 63 67 67 68 67 68 72 74 76 76 73 73 70 65 62 59 56 54 52 50 49 50 50 51 53 52 51 53 53 53 52 50 47 45 42 41 39 40 42 44 47 48 49 49 48 49 51 51 52 53 55 59 61 64 67 71 74 77 79
19 15 9 8 9 10 14 12 10 15 21 22 22 23 24 25 27 30 31 26 26 37 38 30 43 61 71 80 84 83 84 83 82 83 83 85 86 84 83 81 77 73 72 69 66 62 58 55 54 53 53 54 56 56 55 55 55 54 52 51 49 47 46 44 43 43 42 41 40 41 45 48 49 50 51 52 53 53 55 58 61 64 67 71 74 77
20 16 8 7 9 8 9 13 12 15 21 25 27 26 28 32 32 35 42 44 46 55 52 44 54 71 83 93 93 89 90 88 85 86 86 87 88 86 84 82 80 79 78 77 75 74 72 70 66 62 59 57 57 57 56 55 55 54 52 51 50 48 47 46 46 46 47 47 44 38 36 38 41 45 47 48 50 51 53 54 56 60 63 67 71 72
19 23 14 6 9 8 6 13 17 15 19 27 31 33 38 47 51 53 59 66 72 75 70 67 69 81 95 98 96 96 94 92 90 89 90 88 86 85 82 80 80 78 77 76 76 76 77 77 73 69 65 59 56 55 54 54 53 53 52 51 50 47 46 44 42 41 42 44 46 42 35 30 29 33 37 41 43 46 49 50 50 53 57 62 67 68
18 28 23 8 7 10 9 14 17 18 24 30 35 40 46 58 71 75 71 75 86 89 87 85 80 87 100 97 95 98 95 93 92 90 89 87 84 83 82 81 80 79 79 77 76 76 75 75 73 71 69 64 61 58 56 57 58 57 56 54 53 50 47 45 42 40 39 38 38 38 37 33 28 26 27 31 35 37 40 44 46 47 49 53 58 63
15 24 24 12 10 15 16 17 20 28 35 39 46 57 66 74 80 81 75 77 89 94 93 93 87 90 98 94 92 96 93 92 91 89 89 87 84 84 82 82 81 79 78 75 74 73 71 71 71 70 70 68 66 63 60 59 58 57 56 56 56 55 52 49 46 44 43 41 39 37 36 35 32 28 25 24 27 30 32 34 37 41 43 45 49 55
16 20 23 20 18 18 16 17 25 35 40 42 53 69 81 83 83 87 83 75 79 86 90 94 92 94 98 93 91 91 90 91 90 89 87 83 80 80 77 77 77 75 74 71 71 71 67 65 66 67 66 65 65 65 62 60 57 54 53 54 56 57 56 53 51 49 48 46 44 41 38 37 36 34 30 26 24 26 28 29 29 31 33 35 39 45
17 22 26 23 19 18 17 19 25 31 33 33 40 54 66 70 76 90 96 86 79 80 80 82 86 93 99 97 93 91 88 88 86 82 78 74 71 70 68 67 68 68 67 65 65 65 62 61 60 60 60 59 60 61 59 57 55 53 51 51 51 52 53 53 51 49 50 49 48 46 43 41 40 38 36 34 31 29 28 29 28 27 26 25 27 32
17 22 28 26 22 18 17 18 21 24 28 31 35 46 58 65 70 79 87 87 86 85 86 86 87 90 94 95 93 88 82 78 73 68 67 66 64 63 63 63 64 65 65 63 62 60 58 56 55 54 56 58 60 60 57 56 55 53 52 50 50 49 49 49 49 47 47 48 49 49 47 46 44 43 41 40 39 36 32 31 31 30 27 25 23 23
19 23 31 38 38 33 30 30 30 31 32 35 44 54 58 58 60 61 64 70 77 82 86 87 86 82 82 86 85 77 70 64 60 59 60 60 59 60 60 61 60 60 60 59 58 55 54 52 52 54 56 60 62 62 61 61 60 59 57 55 53 52 51 50 49 49 48 48 49 50 51 50 48 48 46 44 42 40 36 33 34 35 33 29 27 24
23 27 34 43 51 57 56 50 42 37 36 42 53 59 56 55 58 58 60 66 72 75 73 75 81 76 66 69 71 66 64 61 54 52 51 50 51 52 54 55 53 51 50 48 46 44 46 48 51 56 59 62 66 68 68 66 64 63 63 61 59 58 59 58 55 52 51 50 50 50 51 52 52 52 51 49 47 43 40 36 35 37 37 35 33 32
23 24 28 38 49 56 51 38 31 32 39 49 58 60 58 60 61 60 65 71 73 75 68 63 71 69 55 52 53 52 55 55 49 45 44 44 47 49 52 53 49 47 46 43 39 40 45 49 52 55 56 57 59 62 63 63 64 66 68 68 67 65 65 64 61 58 55 53 52 50 50 51 52 54 55 54 51 48 45 41 38 39 40 39 38 38
23 22 27 35 36 32 25 22 27 31 37 45 53 56 59 61 58 59 67 70 69 73 65 51 53 59 51 44 43 45 50 51 48 48 48 48 51 52 52 52 49 48 46 45 46 49 52 55 57 56 56 56 56 56 56 57 59 64 68 69 70 71 72 70 68 65 61 58 56 53 50 49 50 52 54 54 53 52 50 46 43 43 43 43 42 40
24 26 28 28 24 21 22 28 32 31 33 39 43 47 52 56 58 61 67 64 62 68 66 53 51 56 51 45 45 49 53 53 52 53 53 53 54 55 54 52 50 50 50 54 57 56 55 55 57 58 59 59 59 59 58 57 57 61 65 68 69 71 74 76 75 73 70 66 61 57 53 50 49 49 50 52 54 53 52 50 49 49 47 46 45 43
27 28 25 26 30 30 31 32 30 31 35 37 39 45 54 59 60 59 58 55 55 59 58 55 56 54 49 48 48 50 54 54 54 55 55 55 56 56 55 53 53 55 58 62 61 57 55 54 55 57 60 62 65 65 64 64 65 65 65 67 69 71 73 75 74 72 70 65 58 56 54 51 49 48 48 50 53 53 53 53 53 54 51 49 47 45
31 31 25 32 42 38 32 31 33 36 37 35 40 49 53 52 49 49 51 54 58 56 52 55 59 52 43 45 52 56 58 57 56 56 56 56 56 57 56 56 59 63 66 65 62 60 59 60 60 61 63 68 71 70 67 65 65 65 63 63 66 66 66 66 62 58 56 53 50 49 47 46 49 50 49 49 50 52 55 56 56 56 55 52 50 48
34 32 27 37 48 41 32 33 38 38 32 37 51 54 45 43 46 51 57 59 59 58 57 58 59 52 47 53 59 60 58 57 56 55 55 56 57 58 60 62 66 69 70 68 67 66 66 68 70 68 67 70 72 70 68 65 64 64 62 61 60 58 57 56 52 49 48 47 45 43 42 44 48 51 51 51 50 51 53 56 57 57 55 54 53 51
36 32 30 41 50 43 34 36 42 41 38 47 58 53 45 48 54 56 57 55 54 59 65 65 60 58 59 62 62 59 56 55 53 52 57 61 60 61 65 69 70 70 71 72 71 72 75 77 79 77 75 75 74 73 71 68 68 69 68 66 63 61 59 58 55 53 51 48 45 43 45 47 48 50 52 51 51 51 53 56 57 56 54 54 54 54
34 30 33 43 49 45 37 36 41 46 51 55 54 49 51 59 63 62 58 55 54 55 58 60 58 60 63 63 62 59 54 51 51 54 63 68 67 67 69 72 72 70 72 75 75 77 81 83 84 84 83 83 83 82 80 78 78 78 78 76 74 71 70 67 64 61 57 53 51 49 49 49 50 55 57 55 56 57 56 57 58 56 54 53 55 56
30 28 34 43 48 45 38 39 47 52 53 55 55 57 62 64 63 59 53 52 54 52 53 57 57 58 59 58 58 56 52 52 54 59 67 71 71 72 72 73 75 74 75 78 79 82 86 86 87 86 84 84 86 86 85 84 82 80 78 78 77 77 75 71 69 68 67 65 62 58 56 56 60 64 66 65 66 66 62 60 59 57 55 55 57 58
30 30 35 41 46 47 42 46 54 51 46 53 63 68 68 63 61 61 57 52 51 51 56 63 62 58 57 56 54 55 55 53 53 60 70 74 73 74 75 77 78 79 81 83 85 89 91 89 88 88 85 84 86 86 86 85 85 84 83 83 83 83 80 77 76 76 77 76 74 71 71 72 72 73 74 72 70 69 68 66 64 61 59 59 60 60
29 32 38 43 46 48 47 47 50 47 45 57 69 70 69 68 68 72 70 57 46 49 57 61 58 54 54 56 57 60 61 58 53 59 70 74 75 76 76 77 81 84 86 88 91 94 94 91 89 89 89 88 87 87 88 89 90 90 90 90 90 90 90 88 86 84 84 85 86 86 86 85 83 81 79 74 71 72 74 72 70 69 67 66 64 63
28 32 41 50 48 47 49 50 53 56 58 65 70 66 67 70 65 64 66 59 54 57 57 54 52 51 53 59 62 62 65 65 60 60 67 74 77 78 77 78 83 86 88 91 94 94 93 92 89 88 89 91 91 90 92 94 95 94 93 94 95 97 97 96 93 92 93 93 93 92 90 90 88 86 83 80 79 80 81 80 79 77 76 73 69 66
28 31 39 49 51 50 52 56 60 63 64 68 70 64 62 63 57 57 65 63 58 59 56 53 55 57 59 62 63 64 70 73 67 64 70 76 76 78 81 81 83 86 89 92 95 96 94 93 93 92 93 95 95 95 97 98 96 96 97 98 99 100 99 99 98 99 99 97 95 94 92 91 89 88 86 85 85 85 85 85 85 83 81 78 73 71
31 34 40 48 53 53 55 57 59 57 57 63 68 64 58 53 55 68 76 64 50 49 53 56 60 62 61 62 63 67 74 76 72 69 74 79 79 81 85 86 86 89 91 91 92 94 95 97 98 98 97 96 98 99 99 97 95 97 99 100 101 101 101 100 100 99 98 98 98 99 98 95 92 90 89 88 87 87 86 85 85 85 82 80 78 77
38 41 45 48 51 54 59 63 59 53 53 58 61 60 58 56 63 75 76 63 54 51 52 57 62 62 62 64 67 69 71 74 75 73 76 82 83 81 84 88 90 91 92 93 93 93 94 98 100 99 97 98 100 98 96 95 96 98 99 100 101 102 101 101 99 98 99 99 100 101 100 99 97 95 95 95 94 94 93 91 91 91 89 88 87 87
48 50 52 50 52 56 61 66 62 54 51 50 48 49 58 68 74 75 68 62 62 59 56 60 63 62 63 66 68 70 72 74 76 75 75 80 83 83 85 89 90 88 88 91 95 97 98 99 99 99 99 100 99 97 95 97 98 98 98 99 101 101 101 101 100 99 100 100 99 99 98 98 99 99 99 99 98 97 96 96 96 97 98 99 99 97
52 57 59 56 57 59 62 66 66 55 44 42 46 51 61 70 72 67 62 61 63 63 63 63 61 61 65 66 67 69 70 71 73 74 75 76 80 84 89 91 90 89 90 92 96 99 99 99 98 100 101 100 100 99 99 99 98 98 98 99 101 101 101 102 101 100 100 99 98 98 98 98 99 99 98 97 96 96 96 96 97 99 100 102 103 101
52 56 59 59 61 65 65 62 55 47 42 46 53 54 55 58 60 59 60 61 62 63 63 61 59 60 65 67 68 68 67 66 67 71 72 73 76 81 87 90 91 92 94 96 98 99 98 97 98 99 101 102 102 102 101 100 99 100 100 100 100 101 102 101 100 99 99 98 98 98 99 98 98 96 95 96 97 98 98 99 100 100 100 101 101 100
50 50 55 59 60 62 63 55 46 45 46 48 48 45 43 45 50 55 61 64 63 62 60 60 60 62 65 70 71 68 65 65 66 69 72 74 76 79 82 85 90 94 96 97 98 98 97 97 98 100 101 103 103 102 101 101 101 101 101 100 100 101 100 100 99 98 98 98 98 98 98 98 96 95 96 97 99 100 101 102 102 101 101 101 100 99
44 45 51 55 53 52 54 50 46 45 43 39 40 42 42 42 46 52 58 60 61 61 60 61 62 63 67 72 71 67 67 68 68 70 73 76 78 79 79 82 87 92 96 97 97 97 98 99 100 100 101 102 102 101 102 103 102 101 101 101 100 100 99 99 98 98 98 98 99 98 98 98 96 96 97 97 98 99 100 100 101 102 102 103 103 102
45 48 50 52 53 54 51 44 44 48 46 41 40 41 41 44 47 51 53 53 55 57 58 60 62 64 67 71 71 70 70 71 71 71 72 75 77 78 81 83 84 88 93 97 97 96 97 100 100 100 100 100 101 101 103 104 103 102 102 101 100 99 99 100 100 100 99 99 100 99 99 99 99 98 98 96 95 96 97 97 99 101 102 103 104 104
48 51 51 51 52 53 47 39 40 47 49 47 45 44 44 45 46 47 50 51 52 54 56 59 62 65 68 70 71 72 72 72 73 72 71 72 74 77 82 85 86 87 90 92 95 98 99 100 100 99 99 98 98 100 102 103 103 102 103 102 100 99 100 101 102 101 100 100 100 100 100 100 100 99 98 96 95 94 94 95 97 98 99 101 103 104
47 51 52 50 50 50 48 42 41 44 45 45 46 46 44 42 42 43 46 49 50 53 56 58 62 68 72 73 73 74 74 73 73 73 71 71 73 76 80 83 86 89 88 87 91 98 101 101 100 100 99 98 98 99 101 102 102 102 103 103 101 99 100 100 100 100 100 100 100 101 101 101 100 100 99 97 96 95 93 94 94 95 97 99 101 102
47 50 50 50 53 53 50 48 49 51 50 48 46 45 43 41 42 43 44 46 49 54 57 59 62 67 71 74 75 76 75 74 74 74 73 72 74 76 77 79 84 87 87 86 89 95 101 103 103 101 101 100 99 99 100 101 101 102 103 103 102 100 100 100 99 99 100 100 100 102 102 101 100 101 100 98 97 96 94 94 93 93 95 98 100 101
45 48 48 51 54 51 48 49 52 54 52 49 49 49 46 45 45 45 45 46 49 53 59 64 67 67 66 68 73 76 76 75 75 74 73 73 75 76 76 78 80 81 83 86 89 91 96 101 103 103 103 102 101 101 100 101 102 102 102 102 102 101 100 99 98 99 100 100 101 101 102 101 101 101 100 99 99 98 96 95 93 92 92 94 96 98